Stanley, ID

7:23 PM MDT on June 24, 2017 (GMT -0600)
Stanley

Weather History for KSNT - June, 2013

Change the Weather History Date:

Saturday, June 29, 2013

  Actual Average Record
Temperature  
Mean Temperature 67 °F 53 °F  
Max Temperature 90 °F 72 °F 93 °F (2015)
Min Temperature 43 °F 35 °F 20 °F (1924)
Degree Days  
Heating Degree Days 0 12  
Month to date heating degree days 369 443  
Since 1 June heating degree days 369 443  
Since 1 July heating degree days 10230 10785  
Cooling Degree Days 2 0  
Month to date cooling degree days 2 0  
Year to date cooling degree days 2 0  
Since 1 June cooling degree days 2 0  
Growing Degree Days 17 (Base 50)    
Moisture  
Dew Point 45 °F    
Average Humidity 53    
Maximum Humidity 89    
Minimum Humidity 17    
Precipitation  
Precipitation 0.10 in 0.04 in 1.34 in (1970)
Month to date precipitation 1.04 1.35  
Year to date precipitation 5.93 9.88  
Sea Level Pressure  
Sea Level Pressure 29.97 in    
Wind  
Wind Speed 4 mph (NW)    
Max Wind Speed 14 mph    
Max Gust Speed 22 mph    
T = Trace of Precipitation, MM = Missing Value Source: NWS Daily Summary

Daily Weather History Graph

Daily Weather History Graph

Search for Another Location

Airport or City:

Trip Planner

Search our weather history database for the weather conditions in past years. The results will help you decide how hot, cold, wet, or windy it might be!

Date:

Astronomy

Jun. 29, 2013 Rise Set
Actual Time 5:59 AM MDT 9:27 PM MDT
Civil Twilight 5:22 AM MDT 10:03 PM MDT
Nautical Twilight 4:34 AM MDT 10:51 PM MDT
Astronomical Twilight 3:33 AM MDT 11:52 PM MDT
Moon 12:42 AM MDT (6/29) 1:32 PM MDT (6/29)
Length of Visible Light 16h 41m
Length of Day
15h 28m
Waning Gibbous, 55% of the Moon is Illuminated
Jun 29
Waning Gibbous
Jun 29
Last Quarter
Jul 8
New
Jul 15
First Quarter
Jul 22
Full

Hourly Weather History & Observations

Time (MDT) Temp. Dew Point Humidity Pressure Visibility Wind Dir Wind Speed Gust Speed Precip Events Conditions
12:51 AM 55.9 °F 43.0 °F 62% 30.02 in - SSE 4.6 mph - N/A   Unknown
1:51 AM 57.0 °F 42.1 °F 57% 30.00 in - Variable 3.5 mph - N/A   Unknown
2:51 AM 50.0 °F 42.1 °F 74% 30.03 in - Calm Calm - N/A   Unknown
3:51 AM 48.9 °F 42.1 °F 77% 30.01 in - SE 3.5 mph - N/A   Unknown
4:51 AM 46.9 °F 42.1 °F 83% 30.02 in - Calm Calm - N/A   Unknown
5:51 AM 45.0 °F 41.0 °F 86% 30.03 in - Calm Calm - N/A   Unknown
6:51 AM 46.0 °F 41.0 °F 83% 30.04 in - Calm Calm - N/A   Unknown
7:51 AM 52.0 °F 43.0 °F 71% 30.01 in - Calm Calm - N/A   Unknown
8:51 AM 59.0 °F 46.0 °F 62% 30.02 in - Calm Calm - N/A   Unknown
9:51 AM 63.0 °F 46.9 °F 56% 30.05 in - North 4.6 mph - N/A   Unknown
10:51 AM 68.0 °F 46.9 °F 47% 30.03 in - NNW 4.6 mph - N/A   Unknown
11:51 AM 73.0 °F 46.0 °F 38% 30.02 in - North 6.9 mph - N/A   Unknown
12:51 PM 75.0 °F 48.9 °F 40% 30.00 in - Calm Calm - N/A   Unknown
1:51 PM 82.9 °F 44.1 °F 25% 29.93 in - NNW 8.1 mph - N/A   Unknown
2:51 PM 84.0 °F 45.0 °F 25% 29.92 in - NNE 8.1 mph - N/A   Unknown
3:51 PM 87.1 °F 42.1 °F 21% 29.89 in - Variable 3.5 mph - N/A   Unknown
4:51 PM 89.1 °F 39.9 °F 18% 29.86 in - NNW 12.7 mph 18.4 mph N/A   Unknown
5:51 PM 84.9 °F 41.0 °F 21% 29.89 in - WSW 3.5 mph - N/A   Unknown
6:51 PM 82.9 °F 44.1 °F 25% 29.89 in - NW 8.1 mph 20.7 mph N/A   Unknown
7:51 PM 73.0 °F 60.1 °F 64% 29.90 in - Calm Calm - 0.10 in   Unknown
8:51 PM 75.0 °F 48.0 °F 38% 29.87 in - WNW 5.8 mph - N/A   Unknown
9:51 PM 64.0 °F 46.9 °F 54% 29.92 in - SSW 4.6 mph - N/A   Unknown
10:51 PM 59.0 °F 46.0 °F 62% 29.95 in - SSE 4.6 mph - N/A   Unknown
11:51 PM 55.9 °F 46.0 °F 69% 29.95 in - Calm Calm - N/A   Unknown